Location: Darmstadt
(49.8706°N, 8.6494°E)
Time: 07:11:04
(UTC+01:00)

Cosmos 1980 Rocket - Pass Details

Date: 31 October 2020
Orbit: 830 x 848 km, 71.0° (Epoch: 03 December)

Event Time Altitude Azimuth Distance (km) Brightness Sun altitude
Rises 19:42:13 0° 215° (SW) 3,377 5.7 -25.9°
Reaches altitude 10° 19:44:40 10° 218° (SW) 2,444 4.9 -26.3°
Maximum altitude 19:50:15 69° 301° (WNW) 892 2.4 -27.2°
Enters shadow 19:52:24 38° 13° (NNE) 1,250 3.0 -27.6°
